When you browse on this site, cookies collect data to enhance your experience and personalize the content and advertising you see.
Visit our Privacy Policy to learn more. By continuing to use the site, you agree to this use of cookies and data.
  • In Switzerland
  • List of Countries
  • For 7 days
  • Water Temperature
  • Satellite Maps
  • Weather Map
  • Weather Widgets
  • user-avatar
    Login

    Hourly Weather Bruchsal

    Today, 27 May, Monday

    Time Temperature Precipitation Wind Pressure Humidity
    00:00 +15°C° 0 mm 2 mps 748 mmHg 80%
    01:00 +14°C° 0 mm 2 mps 748 mmHg 83%
    02:00 +14°C° 0 mm 2 mps 748 mmHg 84%
    03:00 +13°C° 0 mm 2 mps 748 mmHg 85%
    04:00 +13°C° 0 mm 2 mps 748 mmHg 86%
    05:00 +14°C° 0 mm 2 mps 748 mmHg 84%
    06:00 +15°C° 0 mm 2 mps 747 mmHg 81%
    07:00 +16°C° 0 mm 2 mps 747 mmHg 79%
    08:00 +17°C° 0 mm 2 mps 747 mmHg 75%
    09:00 +19°C° 0 mm 3 mps 747 mmHg 71%
    10:00 +20°C° 0 mm 3 mps 747 mmHg 67%
    11:00 +20°C° 0.1 mm 3 mps 747 mmHg 66%
    12:00 +21°C° 0.1 mm 3 mps 746 mmHg 65%
    13:00 +21°C° 0.1 mm 4 mps 746 mmHg 65%
    14:00 +21°C° 0.1 mm 3 mps 746 mmHg 66%
    15:00 +20°C° 0.1 mm 3 mps 745 mmHg 68%
    16:00 +20°C° 0.1 mm 3 mps 745 mmHg 70%
    17:00 +20°C° 0 mm 3 mps 745 mmHg 72%
    18:00 +19°C° 0 mm 3 mps 745 mmHg 73%
    19:00 +19°C° 0 mm 3 mps 745 mmHg 75%
    20:00 +17°C° 0 mm 2 mps 745 mmHg 80%
    21:00 +16°C° 0 mm 2 mps 745 mmHg 84%
    22:00 +15°C° 0 mm 2 mps 745 mmHg 89%
    23:00 +15°C° 0 mm 2 mps 745 mmHg 90%

    Tomorrow, 28 May, Tuesday

    Time Temperature Precipitation Wind Pressure Humidity
    00:00 +14°C° 0 mm 2 mps 745 mmHg 91%
    01:00 +14°C° 0 mm 2 mps 745 mmHg 93%
    02:00 +14°C° 0 mm 2 mps 745 mmHg 92%
    03:00 +13°C° 0 mm 2 mps 745 mmHg 92%
    04:00 +13°C° 0 mm 2 mps 745 mmHg 92%
    05:00 +14°C° 0.3 mm 2 mps 745 mmHg 91%
    06:00 +13°C° 0.3 mm 3 mps 745 mmHg 90%
    07:00 +13°C° 0.3 mm 3 mps 745 mmHg 88%
    08:00 +14°C° 0.2 mm 4 mps 745 mmHg 82%
    09:00 +14°C° 0.2 mm 4 mps 745 mmHg 76%
    10:00 +15°C° 0.2 mm 5 mps 746 mmHg 70%
    11:00 +15°C° 0 mm 5 mps 746 mmHg 67%
    12:00 +17°C° 0 mm 4 mps 746 mmHg 63%
    13:00 +18°C° 0 mm 4 mps 746 mmHg 60%
    14:00 +18°C° 0.2 mm 4 mps 746 mmHg 60%
    15:00 +18°C° 0.2 mm 4 mps 746 mmHg 60%
    16:00 +18°C° 0.2 mm 4 mps 746 mmHg 60%
    17:00 +17°C° 0.2 mm 3 mps 746 mmHg 64%
    18:00 +17°C° 0.2 mm 3 mps 746 mmHg 68%
    19:00 +16°C° 0.2 mm 3 mps 747 mmHg 72%
    20:00 +15°C° 0 mm 2 mps 747 mmHg 75%
    21:00 +14°C° 0 mm 2 mps 748 mmHg 78%
    22:00 +12°C° 0 mm 2 mps 749 mmHg 81%
    23:00 +12°C° 0 mm 2 mps 749 mmHg 84%

    Day after tomorrow, 29 May, Wednesday

    Time Temperature Precipitation Wind Pressure Humidity
    00:00 +10°C° 0 mm 2 mps 749 mmHg 86%
    01:00 +10°C° 0 mm 2 mps 750 mmHg 88%
    02:00 +10°C° 0 mm 2 mps 750 mmHg 89%
    03:00 +9°C° 0 mm 2 mps 750 mmHg 90%
    04:00 +9°C° 0 mm 2 mps 751 mmHg 91%
    05:00 +10°C° 0 mm 2 mps 751 mmHg 89%
    06:00 +12°C° 0 mm 2 mps 751 mmHg 86%
    07:00 +13°C° 0 mm 2 mps 752 mmHg 83%
    08:00 +14°C° 0 mm 2 mps 752 mmHg 79%
    09:00 +15°C° 0 mm 2 mps 752 mmHg 75%
    10:00 +16°C° 0 mm 1 mps 753 mmHg 70%
    11:00 +17°C° 0.1 mm 2 mps 753 mmHg 68%
    12:00 +17°C° 0.1 mm 3 mps 753 mmHg 65%
    13:00 +18°C° 0.1 mm 3 mps 753 mmHg 62%
    14:00 +19°C° 0 mm 3 mps 752 mmHg 61%
    15:00 +19°C° 0 mm 4 mps 752 mmHg 60%
    16:00 +19°C° 0 mm 4 mps 752 mmHg 59%
    17:00 +19°C° 0 mm 4 mps 752 mmHg 62%
    18:00 +18°C° 0 mm 3 mps 752 mmHg 66%
    19:00 +17°C° 0 mm 3 mps 752 mmHg 69%
    20:00 +16°C° 0 mm 3 mps 753 mmHg 73%
    21:00 +14°C° 0 mm 2 mps 753 mmHg 77%
    22:00 +13°C° 0 mm 2 mps 754 mmHg 81%
    23:00 +13°C° 0 mm 2 mps 754 mmHg 80%

    30 May, Thursday

    Time Temperature Precipitation Wind Pressure Humidity
    00:00 +13°C° 0 mm 2 mps 754 mmHg 79%
    01:00 +12°C° 0 mm 3 mps 754 mmHg 78%
    02:00 +12°C° 0.2 mm 3 mps 754 mmHg 81%
    03:00 +12°C° 0.2 mm 3 mps 754 mmHg 83%
    04:00 +12°C° 0.2 mm 3 mps 754 mmHg 85%
    05:00 +12°C° 0.4 mm 3 mps 754 mmHg 87%
    06:00 +12°C° 0.4 mm 3 mps 754 mmHg 88%
    07:00 +13°C° 0.4 mm 3 mps 754 mmHg 89%
    08:00 +13°C° 0.7 mm 4 mps 754 mmHg 90%
    09:00 +13°C° 0.7 mm 4 mps 755 mmHg 91%
    10:00 +14°C° 0.7 mm 4 mps 755 mmHg 91%
    11:00 +14°C° 0.1 mm 4 mps 755 mmHg 90%
    12:00 +14°C° 0.1 mm 4 mps 755 mmHg 89%
    13:00 +15°C° 0.1 mm 4 mps 755 mmHg 88%
    14:00 +17°C° 0 mm 4 mps 755 mmHg 85%
    15:00 +18°C° 0 mm 4 mps 755 mmHg 82%
    16:00 +18°C° 0 mm 4 mps 755 mmHg 78%
    17:00 +18°C° 0 mm 4 mps 755 mmHg 80%
    18:00 +18°C° 0 mm 3 mps 755 mmHg 82%
    19:00 +17°C° 0 mm 3 mps 755 mmHg 84%
    20:00 +17°C° 0 mm 3 mps 756 mmHg 87%
    21:00 +16°C° 0 mm 3 mps 756 mmHg 89%
    22:00 +14°C° 0 mm 3 mps 756 mmHg 92%
    23:00 +14°C° 0 mm 3 mps 756 mmHg 92%

    31 May, Friday

    Time Temperature Precipitation Wind Pressure Humidity
    00:00 +14°C° 0 mm 3 mps 756 mmHg 92%
    01:00 +13°C° 0 mm 3 mps 756 mmHg 93%
    02:00 +13°C° 0.1 mm 3 mps 755 mmHg 92%
    03:00 +14°C° 0.1 mm 3 mps 755 mmHg 92%
    04:00 +14°C° 0.1 mm 4 mps 755 mmHg 91%
    05:00 +14°C° 0 mm 4 mps 755 mmHg 90%
    06:00 +14°C° 0 mm 4 mps 755 mmHg 88%
    07:00 +15°C° 0 mm 5 mps 755 mmHg 86%
    08:00 +15°C° 0.3 mm 5 mps 756 mmHg 87%
    09:00 +15°C° 0.3 mm 5 mps 756 mmHg 88%
    10:00 +15°C° 0.3 mm 5 mps 756 mmHg 89%
    11:00 +16°C° 0.1 mm 5 mps 756 mmHg 85%
    12:00 +17°C° 0.1 mm 5 mps 756 mmHg 80%
    13:00 +19°C° 0.1 mm 5 mps 756 mmHg 75%
    14:00 +20°C° 0.4 mm 5 mps 756 mmHg 72%
    15:00 +20°C° 0.4 mm 4 mps 756 mmHg 69%
    16:00 +21°C° 0.4 mm 4 mps 756 mmHg 67%
    17:00 +20°C° 0.2 mm 4 mps 757 mmHg 67%
    18:00 +19°C° 0.2 mm 4 mps 757 mmHg 68%
    19:00 +18°C° 0.2 mm 3 mps 757 mmHg 69%
    20:00 +16°C° 0 mm 3 mps 758 mmHg 72%
    21:00 +15°C° 0 mm 2 mps 759 mmHg 74%
    22:00 +13°C° 0 mm 2 mps 759 mmHg 76%
    23:00 +13°C° 0 mm 2 mps 760 mmHg 78%

    1 June, Saturday

    Time Temperature Precipitation Wind Pressure Humidity
    00:00 +12°C° 0 mm 2 mps 760 mmHg 80%
    01:00 +10°C° 0 mm 2 mps 760 mmHg 82%
    02:00 +11°C° 0 mm 1 mps 760 mmHg 83%
    03:00 +10°C° 0 mm 1 mps 760 mmHg 85%
    04:00 +9°C° 0 mm 1 mps 760 mmHg 86%
    05:00 +10°C° 0 mm 1 mps 761 mmHg 84%
    06:00 +10°C° 0 mm 2 mps 761 mmHg 81%
    07:00 +12°C° 0 mm 2 mps 761 mmHg 78%
    08:00 +14°C° 0 mm 2 mps 761 mmHg 72%
    09:00 +15°C° 0 mm 2 mps 761 mmHg 66%
    10:00 +17°C° 0 mm 2 mps 760 mmHg 59%
    11:00 +18°C° 0 mm 2 mps 760 mmHg 55%
    12:00 +19°C° 0 mm 2 mps 760 mmHg 50%
    13:00 +20°C° 0 mm 2 mps 760 mmHg 46%
    14:00 +21°C° 0 mm 2 mps 759 mmHg 46%
    15:00 +21°C° 0 mm 2 mps 759 mmHg 46%
    16:00 +21°C° 0 mm 2 mps 759 mmHg 46%
    17:00 +20°C° 0 mm 2 mps 759 mmHg 52%
    18:00 +20°C° 0 mm 2 mps 759 mmHg 57%
    19:00 +19°C° 0 mm 2 mps 758 mmHg 63%
    20:00 +17°C° 0 mm 2 mps 759 mmHg 67%
    21:00 +16°C° 0 mm 2 mps 759 mmHg 72%
    22:00 +14°C° 0 mm 1 mps 759 mmHg 76%
    23:00 +13°C° 0 mm 1 mps 759 mmHg 77%
    Show more